Zurück zum Katalog

CZ-4 DEB

AktivSSO
NORAD 29039·DEBRIS·🇨🇳 China

Gestartet Oct 14, 1999 von Taiyuan Satellite Launch Center

Loading…

Nächste Überflüge (nächste 24 Stunden)

TLE

AktuellSource: Space-Track

Epoche: Sep 14, 2026, 02:35 UTC

1 29039U 99057NJ  26257.10810421  .00002919  00000-0  42143-3 0  9990
2 29039  98.3314 315.2899 0046294  51.8827 338.5122 14.76327465260621

Verfolge CZ-4 DEB in Echtzeit mit AllMySat

Download on the App Store